TimeEDT,TemperatureF,Dew PointF,Humidity,Sea Level PressureIn,VisibilityMPH,Wind Direction,Wind SpeedMPH,Gust SpeedMPH,PrecipitationIn,Events,Conditions,WindDirDegrees,DateUTC
12:54 AM,39.9,30.9,70,30.27,10.0,NE,10.4,-,N/A,,Clear,40,2012-03-27 04:54:00
1:54 AM,37.9,30.0,73,30.28,10.0,NE,10.4,-,N/A,,Clear,40,2012-03-27 05:54:00
2:54 AM,37.9,28.9,70,30.27,10.0,NE,12.7,-,N/A,,Clear,50,2012-03-27 06:54:00
3:54 AM,37.0,28.0,70,30.27,10.0,ENE,11.5,-,N/A,,Clear,60,2012-03-27 07:54:00
4:54 AM,37.0,27.0,67,30.27,10.0,ENE,11.5,-,N/A,,Clear,70,2012-03-27 08:54:00
5:54 AM,36.0,26.1,67,30.28,10.0,ENE,11.5,-,N/A,,Clear,70,2012-03-27 09:54:00
6:54 AM,36.0,25.0,64,30.27,10.0,East,13.8,-,N/A,,Clear,80,2012-03-27 10:54:00
7:54 AM,36.0,25.0,64,30.28,10.0,East,8.1,-,N/A,,Clear,80,2012-03-27 11:54:00
8:54 AM,37.9,26.1,62,30.30,10.0,East,9.2,-,N/A,,Clear,90,2012-03-27 12:54:00
9:54 AM,42.1,27.0,55,30.28,10.0,ESE,9.2,-,N/A,,Clear,110,2012-03-27 13:54:00
10:54 AM,46.9,30.9,54,30.27,10.0,East,9.2,-,N/A,,Clear,90,2012-03-27 14:54:00
11:54 AM,52.0,34.0,50,30.26,10.0,East,6.9,-,N/A,,Clear,80,2012-03-27 15:54:00
12:54 PM,55.0,35.1,47,30.24,10.0,East,6.9,-,N/A,,Clear,100,2012-03-27 16:54:00
1:54 PM,59.0,36.0,42,30.23,10.0,Variable,4.6,-,N/A,,Clear,0,2012-03-27 17:54:00
2:54 PM,62.1,37.0,39,30.19,10.0,Variable,4.6,-,N/A,,Clear,0,2012-03-27 18:54:00
3:54 PM,64.9,37.0,36,30.17,10.0,East,6.9,-,N/A,,Clear,100,2012-03-27 19:54:00
4:54 PM,66.0,37.0,34,30.15,10.0,Calm,Calm,-,N/A,,Clear,0,2012-03-27 20:54:00
5:54 PM,66.9,37.0,33,30.13,10.0,SE,4.6,-,N/A,,Clear,130,2012-03-27 21:54:00
6:54 PM,66.9,39.9,37,30.11,10.0,ESE,3.5,-,N/A,,Clear,120,2012-03-27 22:54:00
7:54 PM,64.0,37.0,37,30.09,10.0,SE,4.6,-,N/A,,Clear,140,2012-03-27 23:54:00
8:54 PM,62.1,36.0,38,30.07,10.0,Calm,Calm,-,N/A,,Clear,0,2012-03-28 00:54:00
9:54 PM,57.9,39.0,49,30.07,10.0,SSE,4.6,-,N/A,,Clear,160,2012-03-28 01:54:00
10:54 PM,54.0,41.0,62,30.06,10.0,South,3.5,-,N/A,,Clear,170,2012-03-28 02:54:00
11:54 PM,57.9,37.0,46,30.05,10.0,South,5.8,-,N/A,,Clear,180,2012-03-28 03:54:00